Theta_e
317 316 316 317 316 312 310 310 310 309 307 307 304 304 303 300 297 288 285 287 287 287 290 289 290 288 286 285 285 286 285 287 287 282 282 282 282 290 291 292 292 292 293 294 294 295 295 295 295 294 294 294 294 294 295 295 295 294 294 295 295 296 296 296 296 297 297 297 297 298 298 298 298 298
318 317 315 314 312 309 309 310 310 308 308 306 303 302 302 301 300 294 289 289 287 286 288 288 290 286 285 285 285 285 284 288 286 282 282 283 285 291 291 291 290 291 291 292 293 294 294 294 294 294 293 293 294 294 294 294 294 294 294 294 294 295 295 295 296 296 296 296 296 297 297 297 297 297
315 312 312 310 310 306 307 306 305 304 305 306 303 300 299 297 299 297 291 289 285 288 288 287 286 288 285 285 285 284 284 287 285 282 282 283 289 288 288 290 289 289 290 291 292 292 293 292 293 293 292 293 293 293 293 293 293 292 292 293 294 294 294 294 294 295 295 295 295 296 296 296 297 297
309 306 304 303 305 303 301 302 301 299 299 301 300 299 297 295 294 293 289 288 286 285 287 287 285 286 285 284 284 283 283 286 286 281 282 285 286 283 283 288 289 288 289 290 290 291 291 291 291 291 291 292 292 292 292 292 291 291 291 291 292 293 293 293 294 294 294 294 294 295 295 295 295 296
306 307 307 306 304 300 299 295 295 296 298 296 297 296 294 294 292 292 288 286 283 283 282 283 284 284 284 282 282 283 282 282 282 284 282 283 283 283 283 282 287 287 288 288 289 289 289 289 289 290 290 290 290 290 290 290 289 289 290 290 291 292 292 293 293 293 293 293 293 294 294 294 295 294
304 304 305 302 299 296 299 297 296 296 296 294 293 291 292 292 290 289 290 287 286 284 282 282 282 283 283 284 281 283 282 282 282 281 282 282 283 283 282 282 283 287 286 287 288 288 288 288 288 288 288 289 289 289 289 288 287 288 288 289 290 290 291 292 292 292 292 292 292 292 293 293 294 294
304 302 302 303 298 296 298 297 297 296 294 292 292 291 290 291 291 289 288 286 284 283 282 281 282 282 282 282 282 282 284 283 283 282 281 281 282 282 282 282 282 286 286 287 287 286 286 287 287 287 288 288 287 287 287 287 287 287 287 289 289 289 289 290 291 291 291 291 291 291 291 292 293 293
302 302 301 300 297 295 296 296 296 294 293 292 292 292 289 289 289 289 287 286 286 283 283 281 282 282 282 280 281 283 283 282 282 281 281 281 281 281 281 281 281 284 286 286 285 285 285 286 286 286 287 286 286 286 286 286 286 286 287 288 288 288 289 289 289 289 289 289 290 290 291 291 291 292
301 301 301 301 296 294 295 294 292 291 290 289 290 289 289 288 289 287 286 284 281 282 282 281 280 279 279 279 280 282 281 280 280 280 280 280 280 280 281 281 282 283 284 284 283 283 284 284 285 285 286 285 285 285 285 285 285 285 286 287 288 288 288 288 288 288 288 288 288 289 289 290 291 291
300 301 301 299 296 295 295 295 293 290 290 289 289 290 288 287 286 286 284 282 280 282 282 282 280 279 280 279 279 281 282 281 279 279 280 280 280 280 280 280 281 281 280 278 279 281 282 282 283 284 284 284 284 284 283 283 284 285 286 287 287 287 287 287 287 287 287 287 287 288 288 289 289 290
295 295 295 294 293 294 294 295 293 291 289 289 288 288 287 286 285 283 282 281 280 280 280 279 279 279 279 279 280 280 281 281 280 280 279 279 279 279 279 278 279 279 279 281 282 281 281 282 281 282 283 283 282 282 282 282 283 284 285 287 287 287 287 287 287 286 286 286 287 287 287 287 288 289
293 293 292 292 292 292 292 292 291 290 290 289 288 287 285 285 284 282 280 280 279 278 278 279 279 278 278 278 277 279 279 279 279 280 280 278 277 278 279 278 276 276 277 276 275 279 279 279 280 281 281 281 281 281 280 280 281 283 285 286 286 286 286 286 286 286 286 286 286 286 287 287 287 288
291 291 291 291 291 290 289 289 290 290 290 289 288 285 285 284 283 281 280 279 278 277 278 277 278 278 278 278 278 278 279 279 280 278 278 277 277 277 276 276 277 276 274 274 275 276 277 276 276 276 275 276 278 277 278 279 280 283 285 286 286 285 285 285 285 285 285 285 285 286 286 286 287 286
289 290 289 289 288 288 288 288 288 289 289 289 290 288 285 284 282 280 279 278 278 278 277 278 278 277 278 279 279 279 280 279 278 277 277 276 276 275 275 274 275 275 275 274 274 276 278 275 274 274 272 275 277 276 275 275 279 282 284 285 285 285 285 285 285 285 285 285 285 285 285 286 286 286
289 288 288 288 287 286 286 287 287 289 289 288 288 288 287 286 284 281 279 279 278 278 278 278 278 278 278 279 281 281 280 278 278 278 278 277 275 274 273 273 273 274 275 273 272 275 277 276 274 275 275 275 275 275 274 279 282 283 284 285 284 284 284 284 284 284 284 284 284 285 285 285 286 285
288 288 287 285 286 286 287 286 286 287 288 288 288 287 286 286 287 286 282 280 278 277 277 277 278 278 279 280 280 280 280 279 279 279 278 277 276 275 274 274 272 273 276 272 271 273 275 274 275 275 276 275 275 275 277 280 282 283 284 284 284 284 284 284 284 283 283 284 284 284 285 285 285 284
287 286 286 285 285 285 285 284 283 283 284 286 287 287 287 287 287 288 287 287 281 280 279 278 278 279 280 280 280 281 281 281 278 278 277 277 276 276 275 275 274 275 275 271 269 271 275 275 275 274 276 276 275 275 277 279 281 282 283 283 283 283 283 283 283 283 283 283 283 284 284 285 284 283
286 286 286 286 284 282 282 283 283 283 283 283 283 283 282 282 284 287 287 287 286 283 280 279 279 280 280 281 281 282 283 280 279 277 277 276 275 275 275 276 276 276 276 273 270 270 273 275 274 273 275 276 275 275 276 279 281 281 282 282 282 282 282 282 282 282 282 282 283 283 284 284 284 282
286 286 286 285 284 282 283 284 284 284 283 282 281 280 280 281 280 281 281 282 281 281 281 280 280 280 282 282 281 281 282 281 280 280 278 277 277 276 275 275 276 275 276 274 274 270 271 272 272 273 274 274 274 274 276 278 279 280 280 280 281 281 281 281 281 281 282 282 282 283 283 283 283 281
285 285 285 284 283 283 283 284 285 285 283 281 280 280 277 275 276 278 281 284 284 281 280 281 280 280 281 283 281 281 281 281 279 277 276 276 274 273 272 272 272 271 274 275 274 271 269 271 271 272 274 273 272 274 273 277 277 279 279 279 280 280 280 280 280 281 281 281 282 282 283 283 282 280
284 283 283 283 282 282 282 284 286 286 284 281 280 280 277 274 274 277 279 283 286 285 285 284 284 284 285 285 285 285 284 281 279 276 275 273 273 272 271 272 270 271 273 274 275 272 270 271 270 270 272 271 271 272 273 273 276 277 277 278 278 279 279 279 279 280 280 280 281 281 282 282 281 279
281 281 283 283 282 282 282 284 286 287 284 282 281 279 279 277 276 277 276 278 281 285 285 284 284 284 285 285 285 285 285 283 280 277 276 275 273 272 272 272 272 271 272 273 275 271 270 269 270 267 269 269 270 271 272 273 273 275 275 276 276 277 278 278 278 279 279 280 280 281 281 281 279 277
282 282 283 284 283 283 283 285 286 287 285 282 281 280 279 278 277 277 276 278 278 280 280 280 281 281 283 283 282 283 284 283 281 279 277 274 274 273 272 272 269 269 272 273 275 271 270 269 270 267 266 267 269 269 269 272 270 270 270 271 272 275 276 276 276 277 278 278 279 280 280 281 279 276
280 280 281 282 285 285 285 286 287 287 287 283 282 280 279 278 278 278 275 277 279 278 278 277 278 279 278 278 279 279 281 282 281 279 278 276 275 274 273 272 272 272 272 274 276 272 269 270 268 270 268 265 266 268 270 270 271 270 270 269 269 272 273 273 273 275 276 277 278 279 279 280 279 275
281 281 281 281 283 285 286 286 286 287 288 286 282 281 280 280 279 279 275 277 280 278 277 277 277 277 276 276 276 276 277 277 278 279 280 278 276 275 274 272 271 272 272 273 278 272 270 269 268 268 266 267 267 266 269 270 271 270 269 269 268 269 269 269 270 268 272 274 276 278 278 279 278 277
279 280 280 279 282 284 286 286 286 287 287 288 284 281 283 283 283 277 275 276 277 277 277 277 276 275 275 274 274 274 274 275 276 277 278 279 277 277 276 275 273 272 272 275 279 273 270 269 269 267 266 265 266 269 266 268 271 270 269 267 268 269 268 267 268 268 268 268 267 273 276 277 277 277
278 276 276 277 282 283 285 286 286 287 287 287 286 286 285 284 285 282 275 276 277 276 276 276 275 275 274 274 274 274 274 274 275 275 276 277 277 276 276 276 276 275 274 274 277 274 273 269 270 269 267 266 265 265 267 266 266 271 269 269 268 269 267 266 267 267 268 267 267 274 274 276 276 275
276 275 276 277 282 283 284 285 286 287 287 284 287 288 287 286 284 276 275 275 276 276 275 275 275 275 275 275 274 274 275 274 275 274 275 275 276 275 274 274 274 275 274 274 274 274 273 271 270 271 269 267 266 265 264 268 269 269 268 268 269 268 265 266 266 267 267 267 266 268 268 269 271 271
275 280 282 282 283 283 284 285 285 286 286 287 287 287 287 284 278 275 275 275 275 275 275 275 275 275 275 275 275 275 275 275 274 274 274 274 274 273 274 273 273 273 274 273 273 273 273 272 271 271 270 269 267 267 267 266 267 266 268 267 265 265 266 265 265 265 266 266 266 267 267 267 268 270
282 283 284 284 284 284 283 281 278 278 280 284 285 286 285 280 278 276 275 274 274 274 274 274 274 275 275 275 275 275 274 273 272 273 272 271 271 271 271 270 271 272 272 273 273 273 272 272 272 271 270 269 269 267 267 266 265 267 268 267 267 267 266 264 265 265 266 266 266 266 267 268 269 269
277 279 280 279 283 282 283 282 281 281 280 279 280 279 280 280 279 277 276 276 275 275 275 275 276 276 275 274 273 272 272 272 272 273 272 271 270 271 271 270 269 270 272 272 272 272 272 272 272 271 268 268 269 268 267 267 266 267 267 267 266 262 262 264 265 265 265 265 265 266 265 267 267 269
273 274 279 278 274 274 274 273 273 273 273 275 276 276 277 279 280 280 279 278 276 276 277 276 275 273 272 271 272 272 272 272 272 272 271 271 270 271 270 269 269 270 270 271 270 271 272 272 271 271 271 269 267 267 267 267 266 266 266 266 265 266 266 265 265 264 264 264 264 264 264 265 264 264
271 272 272 271 272 271 273 272 272 271 272 273 274 273 275 274 275 277 278 277 277 276 274 274 274 273 272 271 271 271 271 271 271 272 270 271 270 271 271 268 270 270 270 270 270 269 270 269 271 270 270 270 270 268 266 264 265 267 266 266 265 264 262 264 264 264 263 264 263 262 262 263 264 266
272 271 271 270 270 270 270 271 271 272 272 272 272 272 276 274 274 276 276 277 277 277 275 275 273 273 271 271 270 270 270 271 271 271 271 269 271 268 269 269 269 270 270 270 270 269 268 268 268 268 268 268 269 268 268 266 265 266 266 264 264 263 264 263 264 263 263 264 263 262 262 264 268 269
272 271 270 270 270 270 269 270 272 271 271 272 271 272 271 272 273 275 275 276 276 275 275 274 273 272 272 271 270 269 270 270 270 270 271 270 270 270 269 269 270 270 270 270 270 269 268 267 266 265 266 266 266 267 271 269 265 266 265 265 263 263 263 263 263 262 262 263 264 263 261 263 265 269
270 269 269 270 269 269 269 271 271 271 271 272 271 271 270 271 271 273 273 275 274 274 274 273 273 273 272 272 271 271 270 270 269 269 268 269 269 269 269 269 269 270 271 270 270 269 268 267 266 264 263 264 264 263 265 273 271 267 265 264 261 260 262 263 262 261 262 263 263 263 262 261 262 264
273 270 269 269 269 269 271 271 270 271 270 271 271 270 271 271 272 272 273 273 271 271 272 272 272 272 272 271 271 270 270 269 268 269 268 268 268 268 268 269 269 269 269 270 270 268 268 266 267 265 264 263 263 262 265 267 272 273 267 265 261 260 261 258 260 261 263 263 262 264 263 263 262 264
273 272 271 271 271 271 271 270 270 270 270 271 271 270 271 271 271 272 270 269 271 270 271 271 271 271 270 270 269 268 268 268 268 267 268 267 267 268 269 268 268 269 269 270 269 268 268 267 266 266 265 263 263 264 264 265 266 270 273 268 266 264 261 260 260 261 260 260 263 263 263 263 264 263
272 273 274 273 274 273 273 273 271 272 271 270 270 271 271 271 271 271 271 271 272 271 271 270 270 270 270 270 270 269 269 268 268 268 267 267 268 268 268 269 269 270 270 268 269 268 267 267 266 266 266 265 265 265 265 263 264 265 269 274 269 265 261 263 263 260 259 260 261 261 261 263 266 270
270 271 270 271 271 271 271 271 271 271 271 272 272 273 273 273 274 273 273 273 272 272 272 271 271 271 270 270 269 269 269 269 268 268 268 268 269 269 269 269 269 269 269 268 267 267 267 267 267 267 267 268 267 265 264 263 262 263 263 268 273 269 265 263 262 261 259 261 260 261 261 262 258 260
269 269 270 271 270 271 272 273 274 274 275 276 276 276 276 275 275 275 275 274 273 273 272 272 271 270 270 270 270 269 268 269 269 269 268 268 269 269 269 269 269 269 268 267 268 267 267 268 269 271 269 266 264 265 263 262 263 262 263 266 271 273 272 269 265 264 262 262 262 262 262 262 260 256
268 270 272 272 273 275 276 276 276 276 277 277 277 277 277 277 276 276 276 275 274 273 272 272 271 271 270 270 270 269 269 268 268 268 268 268 268 268 269 269 268 268 268 267 268 268 268 268 268 269 267 265 265 264 262 263 264 263 260 260 262 268 272 273 272 270 266 265 264 264 264 262 260 257
268 267 268 270 272 272 273 273 274 274 274 275 275 276 276 276 276 275 275 274 274 273 272 271 271 271 270 270 270 270 269 268 269 269 268 268 268 268 268 268 269 269 269 269 269 268 265 266 267 266 265 265 264 265 263 264 264 262 260 261 262 263 266 272 274 272 272 272 272 270 267 265 260 257
265 265 265 266 266 267 267 269 270 270 271 271 272 273 273 273 273 274 274 274 273 273 273 272 272 271 270 270 270 269 269 269 269 268 268 268 268 268 268 268 268 268 269 268 267 265 264 264 265 265 264 263 264 264 263 263 263 263 263 262 261 262 265 264 265 270 271 272 272 273 273 272 271 271
264 263 263 263 264 264 265 265 266 267 267 268 269 270 271 272 272 273 273 273 273 273 272 272 271 271 270 270 269 268 269 270 269 269 268 268 268 268 268 268 268 268 268 268 266 265 264 263 264 264 264 264 264 263 264 263 263 262 262 262 262 263 263 263 264 265 265 265 269 271 272 273 273 272
Wind_Speed
9 10 13 12 9 7 6 7 8 9 8 9 9 11 12 10 9 8 9 10 9 6 6 7 8 7 6 7 5 7 6 7 6 3 3 4 3 3 5 6 6 7 7 8 9 9 10 11 11 11 11 12 13 13 14 15 15 16 16 17 18 19 20 20 20 20 21 21 22 23 24 25 25 26
9 10 9 8 8 8 8 10 9 9 10 9 10 9 9 8 11 9 10 9 8 6 6 4 6 6 7 5 6 5 6 8 7 4 4 3 3 5 5 5 5 6 7 7 9 9 10 11 11 11 12 12 13 13 14 14 15 15 15 17 18 19 19 19 19 20 20 21 22 23 23 24 25 26
9 7 10 8 8 6 8 7 7 8 9 10 9 10 10 10 12 10 8 7 3 6 8 7 3 8 8 6 6 4 5 7 6 4 3 4 6 6 4 4 5 5 6 8 9 10 10 11 11 12 12 12 12 13 13 14 14 14 15 16 17 18 18 19 19 19 20 21 21 22 23 24 25 26
5 5 4 5 6 7 6 8 9 6 4 5 8 9 8 8 7 6 6 9 5 3 5 7 5 6 8 6 7 5 4 4 6 4 3 4 6 4 3 4 5 5 6 7 8 9 10 11 10 11 12 12 12 13 13 13 13 13 14 15 16 17 18 18 18 19 20 20 21 21 22 23 25 26
6 8 8 9 9 6 8 5 3 5 7 6 6 5 4 5 4 5 5 6 4 1 1 3 4 5 7 5 5 7 5 4 3 3 3 4 4 3 3 2 3 4 5 6 7 8 9 10 9 10 11 12 12 12 12 13 12 12 13 14 16 17 17 18 18 19 19 20 20 21 22 23 24 25
5 6 8 7 7 6 6 6 7 8 7 7 7 5 6 6 5 5 7 7 7 7 1 3 1 5 5 7 4 8 7 5 4 3 3 3 4 3 3 3 1 3 3 4 5 7 9 9 8 9 11 11 12 12 12 12 12 12 13 14 15 16 17 17 18 18 19 19 20 21 21 22 23 25
7 6 7 8 5 5 7 7 7 5 6 5 6 5 4 6 8 8 8 7 7 8 7 5 6 7 6 6 6 5 5 5 5 5 3 3 3 2 3 3 1 1 2 4 4 5 8 8 8 9 10 11 11 11 12 12 11 12 12 14 15 15 16 17 17 18 18 19 20 20 21 22 23 24
6 8 7 7 6 6 8 6 6 5 3 5 6 6 6 6 7 7 5 7 8 8 9 6 9 7 8 3 3 4 4 5 3 4 4 2 3 2 3 3 2 0 2 2 2 5 7 7 8 9 10 10 11 11 11 11 11 11 12 14 15 15 15 16 17 17 18 19 19 20 20 21 22 24
7 7 8 7 5 6 7 6 6 6 6 5 7 6 6 7 7 5 6 6 4 7 9 7 3 4 3 2 4 6 7 3 3 2 3 3 2 2 3 3 2 2 2 2 1 3 6 7 7 8 9 10 10 10 10 10 10 11 12 14 14 15 15 15 16 17 17 18 19 19 20 21 22 23
5 7 8 7 8 9 10 9 8 8 9 7 7 9 7 7 5 7 6 4 5 6 7 8 5 2 5 3 2 3 4 6 4 2 2 1 1 2 3 3 2 2 2 2 1 1 4 6 7 8 9 10 10 10 10 10 10 11 12 14 14 15 15 15 16 16 17 18 18 19 19 20 22 23
4 5 4 3 4 6 8 8 9 8 6 6 6 6 5 6 6 6 6 5 5 5 5 2 2 5 1 3 4 1 1 2 3 6 4 4 3 2 4 4 2 1 2 3 3 2 3 5 4 6 7 9 10 10 10 11 11 11 13 13 14 15 15 15 15 16 17 17 18 18 19 20 21 22
4 4 3 3 4 5 4 2 2 5 8 6 8 6 6 7 7 7 6 5 5 4 4 4 6 3 4 2 2 2 3 3 2 5 7 8 6 6 3 3 2 1 2 4 2 2 3 3 4 4 4 7 9 10 10 11 12 13 13 13 14 14 14 15 15 16 16 17 17 18 19 20 21 22
3 3 4 4 4 5 7 9 9 9 8 9 9 8 8 8 8 7 6 7 6 5 7 5 4 6 6 7 7 6 7 11 11 5 5 5 3 1 1 3 2 3 3 2 2 3 3 3 4 2 2 3 4 6 9 9 12 13 13 13 13 14 14 15 15 15 15 16 17 18 18 19 20 20
4 4 4 4 8 9 10 11 12 12 13 13 11 9 10 10 9 10 10 9 9 9 9 9 8 8 9 9 10 10 10 5 4 5 6 7 3 1 2 3 4 3 3 3 4 4 2 3 3 3 2 3 2 2 4 5 8 11 13 13 13 14 14 15 15 15 15 16 17 17 18 18 19 20
5 5 5 4 5 7 7 8 10 11 13 14 13 11 13 13 14 12 11 11 10 10 10 7 7 9 10 10 9 10 7 6 8 7 6 5 4 5 3 6 2 3 5 2 1 5 2 2 3 2 2 4 3 3 4 9 11 11 12 12 12 13 14 15 15 15 15 15 16 17 17 18 19 19
5 5 4 3 3 4 5 4 5 8 12 12 12 11 13 14 13 10 11 10 8 7 7 7 9 8 10 9 8 8 7 8 6 5 6 6 6 6 5 4 4 1 5 3 0 7 2 2 3 3 3 2 3 3 6 9 10 11 11 11 12 13 14 14 14 14 14 15 15 16 17 18 18 18
4 4 4 4 4 3 5 5 6 6 6 9 11 11 12 14 14 11 10 4 5 7 8 9 9 11 8 6 9 9 8 6 7 5 5 5 5 5 5 6 3 2 3 3 1 5 4 3 3 4 2 3 2 3 5 8 9 9 9 10 11 12 12 13 13 13 13 14 14 15 16 17 17 17
4 5 6 5 4 3 4 5 5 4 5 6 6 6 5 6 8 10 10 8 7 8 8 7 10 8 4 8 5 4 6 9 9 8 8 5 6 7 7 1 2 2 4 4 2 4 4 2 1 5 2 3 3 3 6 7 7 7 7 8 10 10 11 12 12 13 13 13 13 14 15 16 16 16
5 5 4 3 4 3 4 5 5 6 6 5 6 5 5 6 5 5 6 6 4 4 4 4 5 2 4 3 1 5 6 8 5 7 6 8 6 2 2 1 1 2 4 4 4 6 3 0 1 6 3 2 3 3 5 6 5 6 6 7 8 8 10 11 11 11 12 12 13 14 14 15 15 15
2 1 2 2 3 3 5 4 7 7 5 5 6 6 5 3 3 4 3 2 2 3 3 2 2 1 2 3 4 6 7 5 6 7 6 5 4 4 1 6 1 4 3 7 7 3 4 1 3 4 1 2 3 3 3 7 4 4 5 5 7 8 8 10 10 11 12 12 13 13 14 15 14 14
1 1 2 2 3 3 4 5 8 8 5 3 4 5 4 3 3 7 3 3 4 3 2 2 3 3 5 7 8 10 11 8 8 7 6 5 6 5 6 6 3 6 4 5 7 2 6 3 5 5 3 3 4 4 5 4 4 3 3 4 6 7 8 9 9 10 11 12 12 12 13 14 13 14
2 3 5 5 4 5 6 7 9 8 6 4 5 4 5 5 6 7 3 1 2 3 4 4 4 5 6 7 10 11 12 13 10 10 10 7 7 7 7 8 4 3 3 5 6 3 6 0 2 2 5 3 5 5 4 5 4 2 2 5 6 6 7 8 8 9 10 12 11 11 13 13 12 7
3 3 4 8 8 7 6 9 10 11 8 6 6 6 4 6 8 8 1 3 3 2 2 2 2 2 5 5 5 7 13 14 11 8 5 7 9 9 7 6 1 3 5 7 9 6 3 4 3 4 3 4 4 3 2 3 2 2 1 1 3 6 6 8 8 8 10 11 11 11 12 13 11 5
3 4 4 5 9 10 9 10 12 12 12 8 5 4 6 7 11 1 3 4 5 5 5 3 2 4 2 2 3 3 6 8 9 8 6 6 7 7 6 7 7 5 3 3 12 9 1 4 4 2 4 2 5 1 1 3 3 3 3 2 2 4 5 6 7 9 10 10 11 11 12 12 12 4
4 4 3 3 6 10 10 10 11 12 14 11 7 6 8 9 3 4 3 4 6 5 4 5 5 5 5 5 4 5 5 6 5 5 8 8 8 8 8 7 8 9 4 2 12 5 4 3 4 1 3 2 3 4 3 2 3 4 3 3 1 3 1 4 3 4 7 10 11 11 11 12 13 10
4 4 4 3 5 9 11 11 12 14 14 15 8 8 11 9 8 3 3 3 4 4 5 5 6 6 6 6 6 7 7 8 8 8 8 8 9 9 9 9 9 7 6 5 15 7 3 2 6 3 2 2 6 3 5 5 3 3 2 2 2 3 2 3 3 4 3 3 4 7 8 11 12 13
5 2 3 3 4 8 10 11 12 13 14 11 7 10 12 11 10 5 3 4 4 4 5 6 8 7 7 8 8 8 9 8 7 8 8 8 7 7 7 6 5 5 2 5 6 6 6 4 4 8 7 2 4 4 5 6 5 1 1 3 2 3 1 1 3 3 3 3 4 8 8 9 11 13
3 3 4 4 6 7 9 10 11 12 11 6 9 11 11 11 7 4 4 4 5 5 6 7 8 8 7 7 7 8 6 5 5 5 5 6 6 6 5 6 6 5 6 6 6 7 7 7 5 5 6 6 6 7 6 5 4 3 2 2 2 3 2 1 3 4 3 2 3 3 2 3 5 5
3 4 6 6 6 7 8 10 9 7 8 11 11 11 10 8 5 5 5 5 4 6 8 8 7 7 7 8 8 4 3 3 4 5 5 4 4 4 5 6 5 6 7 7 8 7 8 8 8 5 6 6 7 7 6 7 2 3 2 2 4 1 1 2 3 2 4 3 2 2 2 2 4 5
5 5 6 6 6 6 6 4 3 4 5 6 9 10 9 4 5 5 5 5 6 8 8 7 8 8 5 5 4 3 4 5 6 6 6 6 7 6 6 5 7 7 7 7 8 8 8 8 8 7 7 7 7 9 8 6 9 6 4 4 4 4 3 2 3 2 2 3 2 3 3 3 3 3
2 2 2 2 4 3 5 6 5 5 4 4 5 4 4 4 5 6 6 7 7 8 7 8 8 6 3 0 1 3 4 5 4 5 5 6 7 6 6 6 7 7 8 8 8 8 8 8 8 8 9 8 6 9 7 5 9 8 5 4 3 4 2 1 2 3 3 2 2 2 2 3 4 3
1 1 2 3 2 2 2 2 2 3 2 4 4 5 4 5 4 5 6 6 5 6 6 6 4 3 0 3 4 4 4 5 4 4 5 5 5 5 5 4 9 8 6 6 7 7 7 8 7 7 8 8 9 6 2 6 9 8 7 5 5 5 3 4 4 4 2 1 2 1 1 1 1 3
1 1 1 1 2 1 1 3 3 3 3 4 4 4 5 4 3 3 4 6 7 7 5 7 6 6 4 5 3 4 5 5 5 3 5 5 5 5 5 10 9 5 7 7 6 6 6 6 5 7 7 7 7 6 5 7 8 7 8 6 5 5 3 3 3 5 0 1 1 1 1 2 2 1
1 0 1 1 1 2 2 4 4 5 4 5 5 5 5 5 4 4 4 5 6 5 6 6 6 6 5 6 5 5 6 5 4 4 6 6 5 6 8 8 10 8 7 7 5 6 5 4 4 3 2 4 3 6 7 8 9 7 6 5 5 5 5 2 4 3 3 2 2 0 1 1 2 2
1 2 2 3 1 1 2 3 5 5 4 5 5 5 5 5 5 5 5 6 6 5 6 5 5 5 5 7 5 6 6 6 5 4 5 5 6 8 9 9 10 8 8 7 6 5 6 5 5 4 3 2 3 8 11 12 9 11 5 6 5 6 5 3 3 2 2 2 1 2 2 3 2 2
1 1 2 4 3 2 3 5 4 5 5 5 5 5 5 5 4 5 7 7 5 6 5 6 6 6 7 7 6 6 6 6 5 5 6 7 7 8 8 9 9 9 7 8 6 4 6 6 6 8 8 5 4 6 5 18 22 10 8 5 4 4 4 3 1 1 2 3 2 3 3 3 3 3
3 1 2 3 3 3 5 5 5 5 4 5 6 5 5 6 5 5 7 5 5 6 7 6 6 6 6 6 6 7 7 6 7 6 7 7 7 7 8 9 10 9 9 8 4 5 5 5 6 6 6 6 5 10 9 2 14 18 7 7 3 3 4 2 3 3 3 3 3 4 3 3 3 4
2 2 2 3 3 5 5 5 5 5 5 6 5 5 5 6 5 6 5 5 6 6 6 6 6 6 6 6 6 7 6 6 6 7 8 6 7 8 9 9 9 9 8 7 5 5 5 6 7 7 6 9 8 9 8 2 1 7 16 9 6 4 3 4 3 5 3 0 4 3 1 2 4 3
1 2 3 4 5 4 5 5 5 5 5 6 6 6 6 5 5 6 6 6 6 6 6 6 6 6 6 6 7 7 7 7 7 8 7 7 7 8 9 9 9 8 7 7 5 5 6 7 8 8 9 9 11 7 3 2 5 2 4 13 7 4 5 5 5 2 3 3 2 1 2 3 4 4
3 2 3 4 5 4 5 5 5 5 5 6 6 5 5 6 6 6 6 6 6 7 6 7 6 6 6 6 7 7 7 8 9 8 8 7 7 8 8 8 9 8 7 7 6 6 7 9 9 11 10 9 2 2 3 1 2 3 3 5 9 9 6 5 5 4 2 3 2 2 1 3 1 3
3 3 5 4 5 5 5 5 5 5 6 6 6 6 6 6 6 6 6 7 6 7 6 6 6 6 7 6 7 7 8 8 7 7 7 7 8 8 9 9 8 8 7 9 8 7 10 10 7 4 4 3 5 4 1 2 6 3 3 5 6 10 11 10 6 5 4 4 4 4 2 1 1 2
3 4 4 4 4 5 4 5 5 5 5 5 6 6 6 6 6 8 8 7 7 7 6 6 5 5 6 6 6 6 8 8 7 7 7 7 7 8 9 8 8 8 8 9 9 8 3 3 4 5 4 5 4 5 8 7 8 3 2 2 4 6 10 11 12 9 7 6 5 2 2 1 0 1
4 4 4 5 5 5 6 7 7 7 8 8 7 7 7 7 7 6 6 6 6 5 5 6 5 5 6 6 6 6 7 7 7 7 7 7 7 8 8 7 8 8 8 8 6 2 3 3 4 5 5 5 6 6 8 7 5 2 1 1 2 3 4 10 13 12 11 12 10 5 3 3 2 0
3 3 3 4 4 4 4 4 5 5 6 7 7 7 7 8 8 8 8 8 8 8 7 7 7 6 6 6 6 6 6 7 7 8 7 7 7 7 7 7 7 7 7 7 4 3 3 4 4 5 6 7 6 6 8 5 4 3 2 1 1 1 3 0 1 2 2 3 5 5 8 10 6 5
2 2 3 3 3 3 4 4 4 4 5 5 6 6 7 7 7 7 7 7 7 8 7 7 6 6 6 5 6 7 7 8 7 6 6 6 6 7 7 7 7 7 7 6 5 4 4 5 3 3 4 5 5 6 5 4 4 2 2 1 3 3 2 1 3 3 3 4 5 7 8 5 3 3
Wind_Direction
210 213 215 217 221 215 204 197 200 198 194 199 190 189 186 178 190 196 218 223 207 214 192 175 215 188 190 174 174 159 175 188 182 169 147 138 121 73 45 26 23 7 2 357 354 351 352 352 348 346 345 342 339 340 340 343 344 344 343 343 341 340 340 340 340 337 338 339 340 340 340 340 340 339
223 225 216 205 204 203 193 209 209 194 198 198 195 190 200 187 203 202 204 229 184 188 205 193 179 190 193 176 170 168 177 192 173 174 156 129 120 76 59 36 17 4 357 354 353 349 351 351 345 341 339 336 336 336 338 339 341 341 342 340 339 339 338 339 338 336 338 339 339 339 340 340 340 338
213 199 207 204 209 185 199 208 216 215 200 201 190 196 192 196 212 205 199 225 243 159 189 221 225 179 184 176 164 170 178 181 168 169 142 126 106 90 73 57 29 9 356 353 351 346 347 345 341 335 332 331 332 334 334 336 339 339 339 338 337 337 338 337 336 336 338 339 339 340 341 341 338 337
218 202 201 194 203 205 204 213 217 207 198 187 200 205 196 204 220 209 185 211 210 201 180 194 195 178 167 168 162 169 172 175 163 160 129 117 99 93 89 65 43 24 1 350 346 340 342 340 335 331 327 326 328 330 332 334 336 336 337 336 336 336 336 335 335 337 338 338 339 340 341 341 338 338
199 202 207 207 211 195 204 197 155 177 196 194 209 207 187 196 196 184 189 203 243 289 123 142 192 173 146 174 179 157 161 154 171 136 120 101 100 99 97 90 50 40 7 346 335 334 337 334 331 327 326 323 325 326 328 331 334 333 334 332 333 334 335 334 334 336 337 337 339 340 341 340 338 339
236 211 211 214 209 189 190 169 190 192 184 183 185 186 182 188 188 206 183 215 190 208 188 157 97 164 179 170 189 167 165 174 170 132 115 87 101 109 107 108 39 38 2 331 322 330 333 328 324 324 322 324 325 326 329 331 331 330 330 329 331 333 334 333 334 335 337 338 338 339 340 339 339 340
214 216 215 219 188 169 185 193 194 177 186 173 182 195 186 197 207 199 201 170 200 181 211 170 163 181 183 177 185 189 171 166 165 136 103 115 114 112 134 133 181 17 335 303 308 323 326 321 320 320 320 326 326 324 331 327 328 327 326 325 329 332 333 332 333 334 336 336 337 338 339 338 339 338
200 212 214 219 193 183 192 191 187 191 176 187 197 197 196 210 210 205 201 209 180 188 171 201 182 182 164 181 156 145 144 146 127 126 131 119 110 136 145 148 166 274 288 278 288 318 315 314 317 317 318 326 328 328 327 323 323 323 321 322 327 330 331 331 332 333 334 335 337 338 338 338 338 338
205 209 214 214 188 190 197 190 181 172 189 192 182 193 195 202 205 202 209 214 179 163 187 176 176 150 144 139 150 168 144 121 102 88 120 145 151 171 178 174 176 195 236 191 219 327 309 310 315 313 315 326 327 328 327 322 318 318 317 319 325 328 330 329 330 332 333 335 336 337 338 337 337 338
218 217 220 216 192 191 197 197 188 182 195 185 195 201 196 195 182 200 211 207 206 187 191 165 143 177 165 146 136 208 160 146 134 134 152 144 184 182 230 226 186 184 179 156 146 327 311 309 306 309 312 323 325 325 324 318 317 316 315 317 324 326 327 328 330 331 332 333 335 337 337 337 337 338
211 219 225 212 191 205 210 200 192 183 176 185 202 199 188 183 188 198 205 193 199 192 153 112 133 143 198 147 165 139 140 126 168 179 171 233 205 203 194 254 277 175 214 201 191 211 246 269 286 292 305 320 320 323 324 319 319 317 312 315 321 324 325 327 328 329 330 333 334 335 336 338 338 338
217 214 206 186 184 199 220 236 176 169 192 184 198 195 178 182 186 196 191 191 194 181 165 156 161 173 159 132 78 107 128 140 277 213 190 212 211 218 204 207 223 287 167 238 240 228 262 288 299 301 314 316 315 323 326 318 313 311 308 312 319 323 323 324 328 330 331 333 334 333 336 337 337 339
210 206 199 192 188 189 194 196 198 199 189 180 195 194 182 182 187 188 182 188 184 185 168 145 136 161 177 189 162 171 189 201 206 173 172 217 212 156 317 293 219 210 221 234 241 254 193 230 248 230 257 271 302 312 317 310 306 304 307 312 318 321 321 323 327 329 330 332 331 332 334 334 337 342
214 210 195 195 190 193 198 199 198 197 198 203 204 188 182 184 186 186 185 189 191 182 183 191 171 182 204 194 195 195 211 179 100 147 174 200 182 104 262 278 236 194 185 216 268 263 219 206 242 199 225 249 278 275 297 278 287 297 305 308 312 318 318 321 325 327 330 329 329 331 332 334 338 342
222 216 204 197 195 196 201 206 205 205 208 209 211 199 194 191 186 183 191 198 184 186 198 186 184 200 205 208 198 207 185 173 184 185 183 180 145 187 208 255 315 184 163 183 223 275 197 178 238 226 211 238 242 264 265 284 296 300 303 305 309 314 317 319 323 326 327 328 329 330 331 333 339 344
216 210 197 194 195 208 209 198 206 217 215 211 205 197 197 204 209 206 189 184 183 194 187 187 208 197 213 205 189 200 171 191 180 185 175 183 182 188 205 213 219 252 155 168 226 279 235 177 226 240 229 203 205 257 280 289 295 301 302 306 310 314 315 318 322 324 327 328 329 330 331 333 338 347
202 181 191 208 212 219 202 196 208 207 213 211 207 205 204 211 214 216 228 246 213 185 193 197 206 205 203 197 213 198 187 151 176 162 186 192 193 198 211 218 172 182 141 102 204 269 258 147 220 243 219 185 216 272 292 288 294 298 304 306 309 311 314 319 322 324 327 329 329 330 332 336 343 348
195 195 202 209 216 201 198 208 206 202 198 202 206 213 214 218 225 228 227 221 206 192 201 196 215 223 179 213 213 174 147 159 182 176 201 178 195 205 218 109 152 129 150 162 152 286 258 189 199 250 235 172 236 240 256 266 290 297 301 310 314 315 318 321 323 326 328 329 331 333 336 340 345 350
208 211 213 214 217 199 211 211 201 196 199 196 208 211 222 220 223 227 223 216 209 205 219 228 250 245 208 232 111 154 173 183 175 178 183 183 186 149 53 5 192 226 190 166 164 242 283 283 229 254 212 213 242 227 249 243 282 295 303 312 318 317 321 324 326 328 331 334 334 336 340 341 348 353
264 246 217 226 237 220 223 218 205 204 182 193 205 218 231 248 266 252 252 262 219 204 212 239 258 238 201 174 167 169 169 136 117 96 81 88 102 115 165 246 231 226 229 181 191 239 264 187 203 262 203 215 248 221 186 220 260 291 303 315 326 320 326 330 329 332 336 337 337 340 343 346 352 354
322 309 245 234 243 237 240 217 211 205 173 197 210 223 234 253 275 259 278 265 244 223 186 202 209 184 187 181 172 168 162 148 135 119 119 175 150 156 217 246 218 248 171 203 188 183 274 208 195 267 265 224 244 225 190 192 224 290 302 321 330 329 330 332 335 336 338 339 340 344 348 349 355 352
236 231 221 216 223 228 234 211 211 204 177 205 209 209 226 248 257 263 233 237 267 234 212 207 203 191 189 181 177 173 168 160 154 154 198 176 154 201 203 230 217 269 216 202 162 157 237 166 188 231 276 298 249 223 205 178 210 247 333 321 330 329 330 333 337 338 339 341 343 348 351 352 360 348
219 224 222 218 218 222 223 209 209 206 188 211 204 205 203 236 246 252 168 213 225 228 214 234 189 204 189 186 178 191 184 179 179 193 177 147 177 198 204 206 94 301 251 194 171 189 253 140 243 133 331 302 266 192 173 201 203 199 168 248 301 312 331 335 339 341 339 345 346 350 354 355 2 342
235 222 227 229 227 227 221 212 211 212 202 206 207 179 208 220 246 220 171 200 195 214 208 201 184 191 180 173 175 219 216 205 194 197 190 176 182 196 197 196 195 206 232 174 175 194 270 162 257 187 192 155 285 299 226 251 202 217 189 207 225 306 325 329 330 328 335 347 350 351 356 1 4 347
231 232 227 233 230 233 229 218 218 218 217 209 200 202 215 219 209 143 191 202 179 196 188 189 191 200 196 206 204 212 219 230 225 207 197 194 195 196 196 191 204 234 221 208 180 171 217 156 236 195 286 240 274 320 277 217 225 203 205 184 229 289 257 299 301 302 322 336 341 349 357 5 6 5
241 235 222 225 223 229 230 225 222 224 224 219 207 217 222 220 225 191 175 163 173 185 194 203 212 210 211 215 218 215 219 221 217 219 217 205 201 208 208 200 200 215 218 191 187 190 157 260 190 209 237 201 287 256 284 291 252 209 200 196 203 253 232 263 301 299 310 313 314 334 359 0 7 5
243 243 238 240 221 221 228 226 226 229 231 231 226 226 225 221 223 173 139 155 180 199 211 216 225 221 216 221 224 222 227 224 215 220 220 218 205 210 210 216 220 213 132 162 194 178 188 213 178 196 228 218 240 300 267 263 302 83 175 224 233 271 227 206 292 293 299 318 307 338 355 353 3 3
240 254 250 242 234 229 230 233 234 234 235 230 238 238 229 219 203 148 165 175 201 207 217 226 231 230 227 230 236 233 233 230 224 225 229 225 213 200 205 208 208 200 178 178 179 180 193 211 217 207 201 205 228 245 266 281 255 228 227 239 226 245 250 265 288 291 301 309 281 318 324 331 324 342
241 242 250 251 244 237 237 240 246 253 252 246 242 239 232 208 179 179 188 203 195 222 230 235 242 243 233 228 236 236 211 202 186 204 224 211 214 197 203 204 201 203 200 199 193 193 196 207 221 205 210 209 216 241 236 254 254 262 220 313 313 291 231 244 228 265 296 300 300 309 293 293 326 333
233 239 246 249 248 248 249 256 258 256 253 257 258 252 243 202 195 189 196 204 208 231 240 242 244 245 235 233 229 203 189 190 209 194 205 195 211 190 198 203 225 213 214 202 199 201 204 211 216 208 217 222 216 236 237 252 272 267 235 224 253 299 245 186 273 251 265 298 309 302 296 306 314 349
281 275 272 256 255 246 252 250 253 260 277 282 278 273 254 224 208 202 203 208 220 235 244 249 249 257 256 16 126 206 206 227 227 207 208 209 217 200 208 212 236 229 222 205 211 202 204 207 203 196 207 228 227 230 232 238 263 268 250 217 188 216 255 226 262 256 254 271 262 277 294 334 345 341
337 339 360 9 20 23 2 338 335 313 296 271 273 270 260 248 231 221 219 229 234 243 248 266 288 302 174 232 231 229 227 237 231 200 209 215 227 210 185 225 240 232 234 210 208 209 197 200 194 202 210 211 224 236 208 229 245 255 259 227 210 244 248 256 265 274 230 269 309 326 297 276 323 323
34 55 19 7 346 10 312 299 294 298 302 285 276 271 272 269 258 235 211 228 238 240 247 254 252 254 236 249 230 239 241 239 224 199 208 233 214 234 205 228 239 230 230 226 200 199 193 196 200 202 213 216 215 196 197 252 252 242 247 236 207 232 233 227 214 239 285 193 251 301 289 285 229 315
105 55 229 278 257 283 296 285 280 278 274 278 281 274 267 261 251 243 238 244 250 247 243 247 249 255 251 258 239 240 247 253 232 212 207 228 216 208 232 239 244 244 244 241 211 193 179 178 167 196 188 219 237 209 208 234 258 249 231 230 211 222 235 201 227 221 204 191 188 290 325 291 243 218
162 222 261 273 283 259 250 258 265 266 270 267 270 267 259 256 250 251 249 249 252 252 251 252 249 251 249 257 251 245 249 248 243 215 229 221 228 232 232 244 251 244 237 244 229 189 165 155 149 140 223 225 267 270 222 214 234 246 237 222 204 207 239 219 205 210 199 218 149 184 257 304 303 260
249 188 228 269 268 256 255 259 260 261 260 264 259 268 272 262 243 242 248 247 239 245 247 248 247 247 250 253 254 251 250 247 243 228 227 228 231 242 243 243 252 257 252 243 236 178 166 179 171 174 184 213 235 274 278 214 206 214 212 225 192 193 226 198 216 181 203 204 201 176 196 247 266 280
241 224 231 245 265 257 264 269 268 270 266 265 266 253 255 264 257 243 251 249 238 234 235 239 246 245 248 249 251 249 246 243 249 240 236 236 239 240 246 253 250 250 251 252 219 183 172 170 191 189 167 181 222 248 253 33 215 211 175 206 204 205 183 159 169 222 230 199 199 188 192 190 232 270
252 253 255 267 268 273 269 274 277 281 275 271 267 268 260 258 264 263 256 237 240 240 240 239 241 241 239 237 240 249 246 239 243 248 246 238 238 244 244 249 253 252 252 252 214 196 187 186 195 196 189 204 233 248 270 289 46 221 203 187 203 194 150 143 175 205 250 186 194 221 117 202 237 250
297 297 293 291 286 277 281 279 275 277 279 276 274 269 273 271 268 267 257 246 247 244 245 241 241 235 238 237 238 242 246 247 246 246 246 242 239 246 249 252 257 256 248 245 222 192 189 201 200 197 201 202 218 227 214 206 237 319 257 208 177 153 180 175 206 184 174 187 250 289 261 253 269 281
320 325 301 297 295 297 294 296 294 281 278 274 272 268 268 275 269 267 261 260 252 248 243 243 242 241 237 233 235 243 249 246 245 251 250 250 248 247 251 250 253 256 251 249 227 204 207 212 204 206 209 216 215 93 147 181 262 270 302 290 207 179 179 164 187 163 202 199 147 109 268 348 17 343
329 323 308 304 299 298 294 295 289 286 284 282 279 279 275 268 272 266 261 254 252 252 251 244 240 234 241 236 236 235 247 252 250 248 249 251 253 250 251 255 257 252 248 248 242 220 223 224 219 204 168 105 119 88 30 291 261 213 208 240 245 218 189 176 175 168 190 159 151 150 198 230 241 14
353 341 323 324 323 319 316 310 303 298 297 297 296 295 292 285 276 280 278 277 274 268 265 264 254 248 247 242 237 237 243 251 252 252 249 248 253 257 255 248 251 249 245 247 245 243 257 98 141 165 135 136 136 172 232 229 250 243 225 275 301 272 250 220 191 186 169 155 158 164 141 51 27 4
5 354 351 350 358 355 352 348 345 342 339 337 333 331 326 318 317 311 304 296 293 284 274 269 263 254 252 248 242 237 243 251 256 255 253 248 250 256 255 249 248 248 244 251 256 207 135 141 142 152 163 170 195 199 232 236 244 208 224 302 287 316 266 240 209 197 191 193 196 186 158 159 138 212
5 6 356 351 2 352 354 346 345 341 336 334 328 325 318 316 310 305 304 299 294 289 285 277 268 260 257 255 251 245 243 248 250 253 252 254 252 253 257 257 253 252 248 247 227 176 115 128 168 164 168 199 193 202 230 233 242 210 217 217 301 327 235 223 358 241 238 248 254 265 214 181 184 200
6 6 8 352 359 351 350 349 346 341 337 330 325 318 312 307 303 304 302 296 291 287 284 278 275 269 266 260 253 253 248 251 252 248 252 253 255 254 255 255 254 251 249 234 209 174 160 162 170 170 194 204 195 210 224 213 228 173 189 188 245 231 236 187 195 214 235 285 290 289 290 238 236 277